Location: Praha
(50.0830°N, 14.4670°E)
Time: 15:26:18
(UTC+02:00)

ISS - Pass Details

Date: 26 May 2018
Orbit: 402 x 408 km, 51.6° (Epoch: 18 September)

Event Time Altitude Azimuth Distance (km) Brightness Sun altitude
Rises 22:41:49 0° 270° (W) 2,322 0.5 -12.5°
Reaches altitude 10° 22:43:55 10° 274° (W) 1,461 -0.5 -12.7°
Maximum altitude 22:47:10 64° 357° (N) 450 -3.4 -12.9°
Drops below altitude 10° 22:50:25 10° 80° (E) 1,459 -1.2 -13.2°
Enters shadow 22:51:52 - 83° (E) 2,050 -0.5 -13.3°
